Location: Ann Arbor
(42.2710°N, 83.7260°W)
Time: 03:10:00
(UTC-05:00)

Tiangong 2 - Visible Passes

Search period start: 17 December 2017 00:00
Search period end: 27 December 2017 00:00
Orbit: 386 x 390 km, 42.8° (Epoch: 17 December)

Date Brightness Start Highest point End Pass type
(mag) Time Alt. Az. Time Alt. Az. Time Alt. Az.
20 Dec 3.5 18:56:06 10° S 18:57:10 14° SSE 18:57:10 14° SSE visible
21 Dec 3.9 19:33:04 10° SW 19:33:54 16° SW 19:33:54 16° SW visible
22 Dec 2.5 18:35:01 10° SSW 18:37:43 26° SSE 18:38:16 24° SE visible
23 Dec 3.3 17:37:22 10° S 17:39:25 16° SSE 17:41:28 10° ESE visible
23 Dec 2.4 19:12:42 10° WSW 19:14:53 39° SW 19:14:53 39° SW visible
24 Dec 1.9 18:14:23 10° SW 18:17:24 41° SSE 18:19:10 21° E visible
24 Dec 4.4 19:50:57 10° W 19:51:27 14° W 19:51:27 14° W visible
25 Dec 0.9 18:52:26 10° WSW 18:55:37 85° S 18:55:42 83° SE visible
26 Dec 1.3 17:53:58 10° WSW 17:57:07 64° SSE 17:59:56 12° E visible
26 Dec 3.4 19:30:45 10° W 19:32:12 24° W 19:32:12 24° W visible
